CET,Max TemperatureF,Mean TemperatureF,Min TemperatureF,Max Dew PointF,MeanDew PointF,Min DewpointF,Max Humidity, Mean Humidity, Min Humidity, Max Sea Level PressureIn, Mean Sea Level PressureIn, Min Sea Level PressureIn, Max VisibilityMiles, Mean VisibilityMiles, Min VisibilityMiles, Max Wind SpeedMPH, Mean Wind SpeedMPH, Max Gust SpeedMPH,PrecipitationIn, CloudCover, Events, WindDirDegrees
2012-12-1,62,60,59,46,42,39,59,51,42,29.89,29.84,29.80,6,6,6,17,14,,0.00,1,,228
2012-12-2,62,60,59,48,43,39,67,53,45,30.01,29.92,29.86,6,6,6,21,17,,0.00,2,,267
2012-12-3,60,60,59,55,50,46,88,70,59,30.18,30.13,30.09,6,6,4,28,21,43,0.00,5,Rain,316
2012-12-4,64,62,59,55,51,46,88,69,52,30.15,30.04,29.92,6,6,6,24,14,,0.00,4,Rain,297
2012-12-5,62,60,57,48,45,41,72,58,48,29.95,29.90,29.86,6,6,5,23,18,34,0.00,3,Rain-Thunderstorm,293
2012-12-6,60,58,55,50,47,45,82,67,55,30.04,29.98,29.92,6,6,6,20,18,33,0.00,3,Rain,301
2012-12-7,62,58,57,46,44,41,63,56,52,30.12,30.07,29.98,6,6,6,24,15,,0.00,2,,270
2012-12-8,64,60,55,52,46,39,88,61,48,29.89,29.84,29.80,6,6,6,26,19,32,0.00,4,,279
2012-12-9,55,52,50,43,38,34,71,55,44,30.09,30.02,29.92,6,6,6,32,26,47,0.00,4,Rain,326
2012-12-10,59,57,55,48,43,39,67,59,48,30.15,30.08,30.01,6,6,6,21,17,29,0.00,3,,279
2012-12-11,60,58,57,48,44,37,67,60,48,30.04,30.01,29.98,6,6,6,20,16,,0.00,4,,304
2012-12-12,59,56,53,48,45,41,77,65,55,30.15,30.11,30.06,6,6,5,16,11,,0.00,3,Rain,318
2012-12-13,62,60,57,54,49,45,77,67,59,30.18,30.14,30.09,6,6,6,20,13,,0.00,1,,139
2012-12-14,66,64,62,59,56,50,88,73,63,30.15,30.10,30.09,6,6,6,12,9,,0.00,1,,120
2012-12-15,66,63,59,61,58,57,94,84,73,30.24,30.20,30.15,6,6,6,7,5,,0.00,1,,354
2012-12-16,64,62,60,59,57,54,94,82,77,30.24,30.18,30.15,6,6,6,14,10,,0.00,2,,256
2012-12-17,66,63,60,59,56,52,83,74,60,30.12,30.07,30.04,6,6,6,16,11,,0.00,2,,286
2012-12-18,62,60,59,52,49,46,72,64,55,30.09,30.05,30.01,6,6,6,29,22,39,0.00,2,,306
2012-12-19,62,60,57,50,48,45,68,64,59,30.15,30.09,30.06,6,6,6,25,22,37,0.00,3,,317
2012-12-20,60,58,55,48,47,45,77,65,55,30.15,30.13,30.09,6,6,6,10,8,,0.00,2,,310
2012-12-21,64,62,59,55,53,52,82,72,64,30.04,30.00,29.95,6,6,6,20,13,,0.00,1,,284
2012-12-22,60,58,57,55,49,45,88,70,59,30.12,30.00,29.92,6,6,6,30,21,41,0.00,4,Rain,331
2012-12-23,62,60,57,54,50,46,82,71,63,30.27,30.24,30.21,6,6,6,17,15,,0.00,3,,319
2012-12-24,62,58,55,55,54,52,88,80,72,30.30,30.26,30.24,,,,9,5,,0.00,,,152
2012-12-25,66,63,60,59,57,55,88,80,73,30.27,30.20,30.15,,,,17,14,,0.00,,,190
2012-12-26,66,63,60,61,58,54,88,84,72,30.18,30.13,30.09,6,6,6,17,12,,0.00,1,,246
2012-12-27,60,60,59,54,51,48,82,74,63,30.27,30.23,30.21,6,6,6,22,17,,0.00,4,,324
2012-12-28,62,60,59,52,51,48,77,71,67,30.27,30.23,30.18,6,6,6,28,22,43,0.00,4,Rain,319
2012-12-29,60,58,57,50,47,45,72,64,59,30.21,30.16,30.12,6,6,6,25,20,32,0.00,2,,335
2012-12-30,59,57,55,50,46,45,72,66,59,30.24,30.20,30.15,6,6,6,17,14,,0.00,2,,340
2012-12-31,59,57,55,50,48,45,77,71,59,30.27,30.24,30.21,6,6,6,15,13,,0.00,2,,348